timestamp,wind_dir_avg,wind_spd_avg,wind_spd_max_dir,wind_spd_gust,battery_voltage,lat,long
2022-04-10 00:04:01+00:00,179.0,1.79,174.0,2.03,12.25,47.59359,-54.27349
2022-04-10 00:14:01+00:00,224.0,2.41,230.0,3.14,12.25,47.59359,-54.27349
2022-04-10 00:24:01+00:00,223.0,3.41,224.0,3.42,12.25,47.59359,-54.27349
2022-04-10 00:34:01+00:00,177.0,2.19,138.0,2.73,12.25,47.59359,-54.27349
2022-04-10 00:44:01+00:00,143.0,2.81,125.0,4.46,12.25,47.59359,-54.27349
2022-04-10 00:54:01+00:00,176.0,2.08,129.0,3.27,12.25,47.59359,-54.27349
2022-04-10 01:04:01+00:00,183.0,1.95,121.0,4.28,12.25,47.59359,-54.27349
2022-04-10 01:14:00+00:00,140.0,0.69,175.0,1.17,12.17,47.59359,-54.27349
2022-04-10 01:24:00+00:00,130.0,1.0,144.0,1.52,12.17,47.59359,-54.27349
2022-04-10 01:34:00+00:00,165.0,0.8,235.0,1.63,12.17,47.59359,-54.27349
2022-04-10 01:44:00+00:00,130.0,3.61,125.0,4.78,12.17,47.59359,-54.27349
2022-04-10 01:54:00+00:00,130.0,2.85,111.0,6.17,12.17,47.59359,-54.27349
2022-04-10 02:04:00+00:00,139.0,2.03,136.0,2.46,12.17,47.59359,-54.27349
2022-04-10 02:14:00+00:00,157.0,2.63,142.0,3.43,12.17,47.59359,-54.27349
2022-04-10 02:24:00+00:00,151.0,3.2,153.0,3.84,12.17,47.59359,-54.27349
2022-04-10 02:34:00+00:00,124.0,2.32,114.0,2.77,12.17,47.59359,-54.27349
2022-04-10 02:44:00+00:00,76.0,1.19,124.0,2.42,12.17,47.59359,-54.27349
2022-04-10 02:54:00+00:00,108.0,1.52,136.0,2.9,12.17,47.59359,-54.27349
2022-04-10 03:04:00+00:00,125.0,1.69,159.0,3.19,12.17,47.59359,-54.27349
2022-04-10 03:14:01+00:00,115.0,1.84,105.0,3.5,12.17,47.59359,-54.27349
2022-04-10 03:24:01+00:00,56.0,1.6,42.0,2.59,12.17,47.59359,-54.27349
2022-04-10 03:34:01+00:00,110.0,0.94,121.0,2.46,12.17,47.59359,-54.27349
2022-04-10 03:44:01+00:00,67.0,1.64,68.0,2.01,12.17,47.59359,-54.27349
2022-04-10 03:54:01+00:00,12.0,1.71,12.0,1.89,12.17,47.59359,-54.27349
2022-04-10 04:04:01+00:00,50.0,0.95,55.0,1.07,12.17,47.59359,-54.27349
2022-04-10 04:14:01+00:00,5.0,3.06,4.0,3.36,12.17,47.59359,-54.27349
2022-04-10 04:24:01+00:00,315.0,0.01,10.0,0.0,12.17,47.59359,-54.27349
2022-04-10 04:34:01+00:00,315.0,0.01,10.0,0.0,12.17,47.59359,-54.27349
2022-04-10 04:44:01+00:00,315.0,0.01,332.0,0.0,12.17,47.59359,-54.27349
2022-04-10 04:54:01+00:00,315.0,0.01,332.0,0.0,12.17,47.59359,-54.27349
2022-04-10 05:04:01+00:00,315.0,0.01,332.0,0.0,12.17,47.59359,-54.27349
2022-04-10 05:14:00+00:00,315.0,0.01,330.0,0.0,12.09,47.59359,-54.27349
2022-04-10 05:24:00+00:00,315.0,0.01,330.0,0.0,12.09,47.59359,-54.27349
2022-04-10 05:34:00+00:00,315.0,0.01,330.0,0.0,12.09,47.59359,-54.27349
2022-04-10 05:44:00+00:00,315.0,0.01,330.0,0.0,12.09,47.59359,-54.27349
2022-04-10 05:54:00+00:00,315.0,0.01,330.0,0.0,12.09,47.59359,-54.27349
2022-04-10 06:04:00+00:00,28.0,5.49,52.0,8.83,12.09,47.59359,-54.27349
2022-04-10 06:14:00+00:00,48.0,4.44,46.0,5.46,12.01,47.59359,-54.27349
2022-04-10 06:24:00+00:00,36.0,5.18,40.0,6.16,12.01,47.59359,-54.27349
2022-04-10 06:34:00+00:00,336.0,4.32,332.0,4.86,12.01,47.59359,-54.27349
2022-04-10 06:44:00+00:00,350.0,4.19,349.0,4.61,12.01,47.59359,-54.27349
2022-04-10 06:54:00+00:00,339.0,4.22,328.0,5.04,12.01,47.59359,-54.27349
2022-04-10 07:04:00+00:00,352.0,4.46,353.0,4.88,12.01,47.59359,-54.27349
2022-04-10 07:14:00+00:00,332.0,4.49,333.0,5.04,12.01,47.59359,-54.27349
2022-04-10 07:24:00+00:00,4.0,3.88,5.0,4.53,12.01,47.59359,-54.27349
2022-04-10 07:34:00+00:00,355.0,3.28,356.0,3.49,12.01,47.59359,-54.27349
2022-04-10 07:44:00+00:00,12.0,0.93,5.0,1.1,12.01,47.59359,-54.27349
2022-04-10 07:54:00+00:00,292.0,0.71,288.0,0.88,12.01,47.59359,-54.27349
2022-04-10 08:04:00+00:00,263.0,0.52,256.0,0.64,12.01,47.59359,-54.27349
2022-04-10 08:14:01+00:00,322.0,0.74,321.0,0.87,12.01,47.59359,-54.27349
2022-04-10 08:24:01+00:00,330.0,1.22,327.0,1.44,12.01,47.59359,-54.27349
2022-04-10 08:34:01+00:00,12.0,3.51,11.0,3.84,12.01,47.59359,-54.27349
2022-04-10 08:44:01+00:00,7.0,4.82,8.0,5.32,12.01,47.59359,-54.27349
2022-04-10 08:54:01+00:00,36.0,3.35,45.0,3.61,12.01,47.59359,-54.27349
2022-04-10 09:04:01+00:00,5.0,2.99,44.0,3.76,12.01,47.59359,-54.27349
2022-04-10 09:14:01+00:00,10.0,3.6,36.0,4.4,11.93,47.59359,-54.27349
2022-04-10 09:24:01+00:00,29.0,3.18,43.0,3.95,11.93,47.59359,-54.27349
2022-04-10 09:34:01+00:00,54.0,3.17,53.0,3.29,11.93,47.59359,-54.27349
2022-04-10 09:44:01+00:00,29.0,2.6,27.0,2.88,11.93,47.59359,-54.27349
2022-04-10 09:54:01+00:00,68.0,1.04,71.0,1.22,11.93,47.59359,-54.27349
2022-04-10 10:04:01+00:00,91.0,1.66,93.0,2.05,11.93,47.59359,-54.27349
2022-04-10 10:14:01+00:00,67.0,1.2,73.0,1.85,12.33,47.59359,-54.27349
2022-04-10 10:24:01+00:00,73.0,2.03,69.0,2.3,12.33,47.59359,-54.27349
2022-04-10 10:34:01+00:00,342.0,1.05,63.0,2.49,12.33,47.59359,-54.27349
2022-04-10 10:44:01+00:00,247.0,0.78,240.0,0.93,12.33,47.59359,-54.27349
2022-04-10 10:54:01+00:00,248.0,1.01,258.0,1.58,12.33,47.59359,-54.27349
2022-04-10 11:04:01+00:00,96.0,0.18,273.0,1.92,12.33,47.59359,-54.27349
2022-04-10 11:14:00+00:00,274.0,1.67,273.0,2.44,13.21,47.59359,-54.27349
2022-04-10 11:24:00+00:00,264.0,1.33,266.0,1.78,13.21,47.59359,-54.27349
2022-04-10 11:34:00+00:00,297.0,0.4,284.0,0.67,13.21,47.59359,-54.27349
2022-04-10 11:44:00+00:00,35.0,0.34,52.0,0.61,13.21,47.59359,-54.27349
2022-04-10 11:54:00+00:00,266.0,0.37,279.0,0.82,13.21,47.59359,-54.27349
2022-04-10 12:04:00+00:00,358.0,0.91,356.0,1.27,13.21,47.59359,-54.27349
2022-04-10 12:14:00+00:00,328.0,2.19,327.0,2.64,13.6,47.59359,-54.27349
2022-04-10 12:24:00+00:00,345.0,1.52,345.0,1.53,13.6,47.59359,-54.27349
2022-04-10 12:34:00+00:00,64.0,0.75,54.0,0.97,13.6,47.59359,-54.27349
2022-04-10 12:44:00+00:00,164.0,1.07,169.0,1.15,13.6,47.59359,-54.27349
2022-04-10 12:54:00+00:00,149.0,1.64,150.0,1.95,13.6,47.59359,-54.27349
2022-04-10 13:04:00+00:00,146.0,2.05,149.0,2.23,13.6,47.59359,-54.27349
2022-04-10 13:14:00+00:00,165.0,1.26,164.0,1.33,13.68,47.59359,-54.27349
2022-04-10 13:24:00+00:00,147.0,1.45,144.0,1.69,13.68,47.59359,-54.27349
2022-04-10 13:34:00+00:00,149.0,1.2,151.0,1.43,13.68,47.59359,-54.27349
2022-04-10 13:44:00+00:00,158.0,0.94,160.0,1.32,13.68,47.59359,-54.27349
2022-04-10 13:54:00+00:00,175.0,1.99,177.0,2.17,13.68,47.59359,-54.27349
2022-04-10 14:04:00+00:00,185.0,3.73,185.0,3.82,13.68,47.59359,-54.27349
2022-04-10 14:14:01+00:00,193.0,3.78,195.0,3.87,13.84,47.59359,-54.27349
2022-04-10 14:24:01+00:00,181.0,2.74,182.0,2.74,13.84,47.59359,-54.27349
2022-04-10 14:34:01+00:00,193.0,3.07,196.0,3.16,13.84,47.59359,-54.27349
2022-04-10 14:44:01+00:00,189.0,2.05,190.0,2.09,13.84,47.59359,-54.27349
2022-04-10 14:54:01+00:00,193.0,2.87,196.0,2.94,13.84,47.59359,-54.27349
2022-04-10 15:04:01+00:00,191.0,3.75,196.0,3.88,13.84,47.59359,-54.27349
2022-04-10 15:14:01+00:00,192.0,4.69,192.0,4.89,13.68,47.59359,-54.27349
2022-04-10 15:24:01+00:00,205.0,4.8,203.0,5.2,13.68,47.59359,-54.27349
2022-04-10 15:34:01+00:00,200.0,4.35,201.0,4.69,13.68,47.59359,-54.27349
2022-04-10 15:44:01+00:00,223.0,5.73,223.0,7.05,13.68,47.59359,-54.27349
2022-04-10 15:54:01+00:00,224.0,7.26,236.0,10.34,13.68,47.59359,-54.27349
2022-04-10 16:04:01+00:00,216.0,5.76,217.0,6.52,13.68,47.59359,-54.27349
2022-04-10 16:14:00+00:00,221.0,6.03,232.0,7.34,14.08,47.59359,-54.27349
2022-04-10 16:24:00+00:00,222.0,5.62,220.0,6.48,14.08,47.59359,-54.27349
2022-04-10 16:34:00+00:00,214.0,4.15,226.0,4.95,14.08,47.59359,-54.27349
2022-04-10 16:44:00+00:00,210.0,2.73,209.0,2.91,14.08,47.59359,-54.27349
2022-04-10 16:54:00+00:00,207.0,3.62,207.0,4.09,14.08,47.59359,-54.27349
2022-04-10 17:04:00+00:00,206.0,3.08,206.0,3.24,14.08,47.59359,-54.27349
2022-04-10 17:14:01+00:00,215.0,1.65,211.0,1.76,13.84,47.59359,-54.27349
2022-04-10 17:24:01+00:00,327.0,0.56,343.0,0.75,13.84,47.59359,-54.27349
2022-04-10 17:34:01+00:00,344.0,1.44,344.0,1.59,13.84,47.59359,-54.27349
2022-04-10 17:44:01+00:00,4.0,1.32,20.0,1.58,13.84,47.59359,-54.27349
2022-04-10 17:54:01+00:00,31.0,2.56,33.0,2.87,13.84,47.59359,-54.27349
2022-04-10 18:04:01+00:00,29.0,2.22,27.0,2.35,13.84,47.59359,-54.27349
2022-04-10 18:14:00+00:00,14.0,1.56,27.0,2.08,13.68,47.59359,-54.27349
2022-04-10 18:24:00+00:00,40.0,3.25,51.0,4.09,13.68,47.59359,-54.27349
2022-04-10 18:34:00+00:00,43.0,4.39,43.0,4.92,13.68,47.59359,-54.27349
2022-04-10 18:44:00+00:00,26.0,4.21,42.0,5.27,13.68,47.59359,-54.27349
2022-04-10 18:54:00+00:00,46.0,4.62,57.0,6.18,13.68,47.59359,-54.27349
2022-04-10 19:04:00+00:00,56.0,5.68,66.0,6.99,13.68,47.59359,-54.27349
2022-04-10 19:14:01+00:00,42.0,5.09,58.0,6.96,13.68,47.59359,-54.27349
2022-04-10 19:24:01+00:00,30.0,7.3,36.0,7.79,13.68,47.59359,-54.27349
2022-04-10 19:34:01+00:00,33.0,5.76,33.0,6.41,13.68,47.59359,-54.27349
2022-04-10 19:44:01+00:00,44.0,4.91,51.0,6.11,13.68,47.59359,-54.27349
2022-04-10 19:54:01+00:00,64.0,6.24,64.0,6.99,13.68,47.59359,-54.27349
2022-04-10 20:04:01+00:00,64.0,6.44,67.0,6.88,13.68,47.59359,-54.27349
2022-04-10 20:14:01+00:00,55.0,4.6,53.0,5.25,13.05,47.59359,-54.27349
2022-04-10 20:24:01+00:00,66.0,4.43,64.0,5.16,13.05,47.59359,-54.27349
2022-04-10 20:34:01+00:00,56.0,4.2,69.0,7.62,13.05,47.59359,-54.27349
2022-04-10 20:44:01+00:00,47.0,3.73,60.0,5.43,13.05,47.59359,-54.27349
2022-04-10 20:54:01+00:00,41.0,3.95,50.0,5.34,13.05,47.59359,-54.27349
2022-04-10 21:04:01+00:00,44.0,3.76,59.0,5.58,13.05,47.59359,-54.27349
2022-04-10 21:14:01+00:00,44.0,4.06,61.0,5.59,12.49,47.59359,-54.27349
2022-04-10 21:24:01+00:00,43.0,4.56,50.0,6.01,12.49,47.59359,-54.27349
2022-04-10 21:34:01+00:00,55.0,4.55,46.0,5.75,12.49,47.59359,-54.27349
2022-04-10 21:44:01+00:00,49.0,6.15,48.0,6.91,12.49,47.59359,-54.27349
2022-04-10 21:54:01+00:00,56.0,7.84,57.0,8.7,12.49,47.59359,-54.27349
2022-04-10 22:04:01+00:00,50.0,6.29,56.0,7.71,12.49,47.59359,-54.27349
2022-04-10 22:14:00+00:00,65.0,10.08,66.0,11.32,12.41,47.59359,-54.27349
2022-04-10 22:24:00+00:00,64.0,10.15,61.0,11.72,12.41,47.59359,-54.27349
2022-04-10 22:34:00+00:00,65.0,10.98,72.0,13.1,12.41,47.59359,-54.27349
2022-04-10 22:44:00+00:00,69.0,8.39,62.0,10.05,12.41,47.59359,-54.27349
2022-04-10 22:54:00+00:00,75.0,7.21,62.0,10.61,12.41,47.59359,-54.27349
2022-04-10 23:04:00+00:00,72.0,10.14,70.0,13.23,12.41,47.59359,-54.27349
2022-04-10 23:14:01+00:00,75.0,9.23,75.0,11.74,12.41,47.59359,-54.27349
2022-04-10 23:24:01+00:00,70.0,11.3,73.0,14.53,12.41,47.59359,-54.27349
2022-04-10 23:34:01+00:00,74.0,10.07,68.0,14.86,12.41,47.59359,-54.27349
2022-04-10 23:44:01+00:00,75.0,11.51,67.0,14.82,12.41,47.59359,-54.27349
2022-04-10 23:54:01+00:00,73.0,9.83,67.0,13.29,12.41,47.59359,-54.27349
